Location: Chacón
(10.5789°N, 66.9317°W)
Time: 23:40:00
(UTC+00:00)

Cosmos 1339 Rocket - Pass Details

Date: 21 August 2024
Orbit: 941 x 1006 km, 82.9° (Epoch: 12 September)

Event Time Altitude Azimuth Distance (km) Brightness Sun altitude
Rises 09:54:05 0° 173° (S) 3,693 7.5 -6.6°
Reaches altitude 10° 09:56:41 10° 169° (SSE) 2,736 6.9 -6.0°
Maximum altitude 10:02:46 55° 92° (E) 1,159 5.4 -4.6°
Drops below altitude 10° 10:08:45 10° 16° (NNE) 2,691 7.3 -3.1°
Sets 10:11:17 0° 12° (NNE) 3,627 7.8 -2.5°
